| time (UTC) | temp C | wind direction | speed KPH | gust KPH | rain 1hr cm | rain 24hr cm | rain mn cm | humidity % | barometer mb |
| 20260902060058 | 17 | 0 | 0.0 | 0.0 | 0.00 | 0.89 | 0.00 | 95 | 1018.6 |
| 20260902054555 | 17 | 0 | 0.0 | 0.0 | 0.00 | 0.89 | 0.00 | 95 | 1018.6 |
| 20260902053104 | 17 | 0 | 0.0 | 0.0 | 0.00 | 0.89 | 0.00 | 95 | 1018.5 |
| 20260902051607 | 18 | 0 | 0.0 | 0.0 | 0.00 | 0.89 | 0.00 | 95 | 1018.2 |
| 20260902050107 | 18 | 0 | 0.0 | 0.0 | 0.00 | 0.89 | 0.00 | 95 | 1018.3 |
| 20260902044624 | 18 | 0 | 0.0 | 0.0 | 0.00 | 0.89 | 0.00 | 95 | 1018.0 |
| 20260902043058 | 18 | 0 | 0.0 | 0.0 | 0.00 | 0.89 | 0.00 | 95 | 1018.0 |
| 20260902041605 | 18 | 0 | 0.0 | 0.0 | 0.00 | 0.89 | 0.00 | 94 | 1018.0 |
| 20260902040109 | 18 | 0 | 0.0 | 0.0 | 0.00 | 0.89 | 0.00 | 94 | 1018.0 |
| 20260902034601 | 18 | 0 | 0.0 | 0.0 | 0.00 | 0.89 | 0.89 | 94 | 1018.0 |
| 20260902033052 | 18 | 0 | 0.0 | 0.0 | 0.00 | 0.89 | 0.89 | 93 | 1017.8 |
| 20260902031615 | 18 | 0 | 0.0 | 0.0 | 0.00 | 0.89 | 0.89 | 92 | 1017.7 |
| 20260902030057 | 19 | 0 | 0.0 | 0.0 | 0.00 | 0.89 | 0.89 | 91 | 1017.7 |
| 20260902024600 | 19 | 0 | 0.0 | 3.2 | 0.00 | 0.89 | 0.89 | 90 | 1017.5 |
| 20260902023055 | 19 | 0 | 0.0 | 0.0 | 0.00 | 0.89 | 0.89 | 90 | 1017.4 |
| 20260902021553 | 19 | 0 | 0.0 | 0.0 | 0.00 | 0.89 | 0.89 | 89 | 1017.6 |
| 20260902020058 | 20 | 0 | 0.0 | 0.0 | 0.00 | 0.89 | 0.89 | 88 | 1017.5 |
| 20260902014555 | 20 | 0 | 1.6 | 6.4 | 0.00 | 0.89 | 0.89 | 87 | 1017.4 |
| 20260902013104 | 20 | 0 | 0.0 | 9.7 | 0.00 | 0.89 | 0.89 | 87 | 1017.6 |
| 20260902011551 | 20 | 0 | 0.0 | 1.6 | 0.00 | 0.89 | 0.89 | 87 | 1017.6 |
| 20260902010100 | 20 | 0 | 0.0 | 6.4 | 0.00 | 0.89 | 0.89 | 87 | 1017.1 |
| 20260902004556 | 20 | 0 | 0.0 | 0.0 | 0.00 | 0.89 | 0.89 | 89 | 1017.2 |
| 20260902003102 | 20 | 0 | 0.0 | 0.0 | 0.00 | 0.89 | 0.89 | 90 | 1017.1 |
| 20260902001603 | 19 | 0 | 0.0 | 0.0 | 0.00 | 0.89 | 0.89 | 92 | 1017.0 |
| 20260902000056 | 19 | 0 | 0.0 | 0.0 | 0.00 | 0.89 | 0.89 | 92 | 1017.1 |
| 20260901234604 | 20 | 0 | 0.0 | 0.0 | 0.00 | 0.89 | 0.89 | 92 | 1017.1 |
| 20260901233058 | 20 | 0 | 0.0 | 0.0 | 0.00 | 0.89 | 0.89 | 91 | 1017.0 |
| 20260901231602 | 20 | 0 | 0.0 | 0.0 | 0.00 | 0.89 | 0.89 | 91 | 1016.7 |
| 20260901230111 | 20 | 0 | 0.0 | 0.0 | 0.00 | 0.89 | 0.89 | 89 | 1016.7 |
| 20260901224600 | 20 | 0 | 0.0 | 0.0 | 0.00 | 0.89 | 0.89 | 88 | 1016.4 |
| 20260901223055 | 20 | 0 | 0.0 | 0.0 | 0.00 | 0.89 | 0.89 | 90 | 1016.4 |
| 20260901221607 | 21 | 0 | 0.0 | 0.0 | 0.00 | 0.89 | 0.89 | 89 | 1016.3 |
| 20260901220100 | 21 | 0 | 0.0 | 0.0 | 0.00 | 0.89 | 0.89 | 89 | 1016.4 |
| 20260901214555 | 21 | 0 | 0.0 | 0.0 | 0.00 | 0.89 | 0.89 | 88 | 1016.5 |
| 20260901213056 | 21 | 0 | 0.0 | 0.0 | 0.00 | 0.89 | 0.89 | 90 | 1016.4 |
| 20260901211600 | 21 | 0 | 0.0 | 0.0 | 0.00 | 0.89 | 0.89 | 89 | 1016.5 |
| 20260901210057 | 21 | 0 | 0.0 | 0.0 | 0.00 | 0.89 | 0.89 | 86 | 1016.2 |
| 20260901204553 | 21 | 0 | 0.0 | 0.0 | 0.00 | 0.89 | 0.89 | 85 | 1016.0 |
| 20260901203102 | 22 | 0 | 0.0 | 0.0 | 0.00 | 0.89 | 0.89 | 86 | 1016.0 |
| 20260901201603 | 22 | 0 | 0.0 | 0.0 | 0.00 | 0.89 | 0.89 | 88 | 1016.1 |
| 20260901200100 | 21 | 0 | 0.0 | 0.0 | 0.00 | 0.89 | 0.89 | 87 | 1016.2 |
| 20260901194607 | 21 | 0 | 0.0 | 0.0 | 0.00 | 0.89 | 0.89 | 87 | 1016.2 |
| 20260901193059 | 21 | 0 | 0.0 | 0.0 | 0.00 | 0.89 | 0.89 | 89 | 1016.0 |
| 20260901191553 | 21 | 0 | 0.0 | 0.0 | 0.00 | 0.89 | 0.89 | 92 | 1016.1 |
| 20260901190059 | 20 | 0 | 0.0 | 0.0 | 0.00 | 0.89 | 0.89 | 92 | 1016.3 |
| 20260901184607 | 20 | 0 | 0.0 | 0.0 | 0.00 | 0.89 | 0.89 | 93 | 1016.6 |
| 20260901183118 | 20 | 0 | 0.0 | 0.0 | 0.00 | 0.89 | 0.89 | 92 | 1016.3 |
| 20260901181552 | 20 | 0 | 0.0 | 0.0 | 0.00 | 0.89 | 0.89 | 93 | 1016.3 |
| 20260901174555 | 19 | 0 | 0.0 | 0.0 | 0.00 | 0.89 | 0.89 | 94 | 1016.4 |
| 20260901173124 | 20 | 0 | 0.0 | 0.0 | 0.00 | 0.89 | 0.89 | 94 | 1016.4 |
| 20260901171602 | 20 | 0 | 0.0 | 0.0 | 0.00 | 0.89 | 0.89 | 96 | 1016.4 |
| 20260901164557 | 18 | 0 | 0.0 | 0.0 | 0.00 | 0.89 | 0.89 | 96 | 1016.4 |
| 20260901163118 | 18 | 0 | 0.0 | 0.0 | 0.00 | 0.89 | 0.89 | 97 | 1016.5 |
| 20260901161607 | 18 | 0 | 0.0 | 0.0 | 0.00 | 0.89 | 0.89 | 97 | 1016.6 |
| 20260901160056 | 18 | 0 | 0.0 | 0.0 | 0.00 | 0.89 | 0.89 | 96 | 1016.6 |
| 20260901154559 | 17 | 0 | 0.0 | 0.0 | 0.03 | 0.89 | 0.89 | 96 | 1016.6 |
| 20260901153056 | 17 | 0 | 0.0 | 4.8 | 0.03 | 0.89 | 0.89 | 96 | 1016.5 |
| 20260901151558 | 17 | 0 | 0.0 | 0.0 | 0.08 | 0.89 | 0.89 | 96 | 1016.3 |
| 20260901150059 | 17 | 0 | 0.0 | 4.8 | 0.08 | 0.89 | 0.89 | 96 | 1016.0 |
| 20260901144556 | 17 | 0 | 0.0 | 0.0 | 0.05 | 0.86 | 0.86 | 96 | 1016.0 |
| 20260901143105 | 17 | 0 | 0.0 | 0.0 | 0.05 | 0.84 | 0.84 | 96 | 1016.2 |
| 20260901141614 | 18 | 0 | 0.0 | 0.0 | 0.03 | 0.81 | 0.81 | 96 | 1016.2 |
| 20260901140105 | 18 | 0 | 0.0 | 0.0 | 0.05 | 0.81 | 0.81 | 97 | 1016.2 |
| 20260901134605 | 17 | 0 | 0.0 | 0.0 | 0.05 | 0.81 | 0.81 | 96 | 1015.9 |
| 20260901133125 | 17 | 0 | 0.0 | 0.0 | 0.05 | 0.79 | 0.79 | 96 | 1016.1 |
| 20260901131604 | 17 | 0 | 0.0 | 0.0 | 0.05 | 0.79 | 0.79 | 96 | 1016.1 |
| 20260901130118 | 17 | 0 | 0.0 | 0.0 | 0.03 | 0.76 | 0.76 | 96 | 1016.4 |
| 20260901124602 | 17 | 0 | 0.0 | 0.0 | 0.05 | 0.76 | 0.76 | 96 | 1016.7 |
| 20260901123101 | 17 | 0 | 0.0 | 0.0 | 0.05 | 0.74 | 0.74 | 96 | 1016.9 |
| 20260901121604 | 17 | 0 | 0.0 | 0.0 | 0.15 | 0.74 | 0.74 | 95 | 1016.8 |
| 20260901120107 | 17 | 0 | 0.0 | 0.0 | 0.20 | 0.74 | 0.74 | 95 | 1016.9 |
| 20260901114603 | 17 | 0 | 0.0 | 0.0 | 0.28 | 0.71 | 0.71 | 95 | 1016.7 |
| 20260901113102 | 17 | 0 | 0.0 | 0.0 | 0.33 | 0.69 | 0.69 | 95 | 1016.8 |
| 20260901111559 | 17 | 0 | 0.0 | 0.0 | 0.25 | 0.58 | 0.58 | 95 | 1016.8 |
| 20260901110055 | 17 | 0 | 0.0 | 0.0 | 0.23 | 0.53 | 0.53 | 95 | 1016.6 |
| 20260901104602 | 17 | 0 | 0.0 | 0.0 | 0.23 | 0.43 | 0.43 | 94 | 1016.7 |
| 20260901103100 | 17 | 0 | 0.0 | 0.0 | 0.30 | 0.36 | 0.36 | 94 | 1016.2 |
| 20260901101606 | 18 | 0 | 0.0 | 0.0 | 0.33 | 0.33 | 0.33 | 93 | 1016.0 |
| 20260901100105 | 18 | 0 | 0.0 | 0.0 | 0.30 | 0.30 | 0.30 | 93 | 1016.1 |
| 20260901094600 | 18 | 0 | 0.0 | 0.0 | 0.20 | 0.20 | 0.20 | 92 | 1016.4 |
| 20260901093058 | 18 | 0 | 0.0 | 0.0 | 0.05 | 0.05 | 0.05 | 90 | 1016.5 |
| 20260901091556 | 18 | 0 | 0.0 | 0.0 | 0.00 | 0.00 | 0.00 | 89 | 1016.3 |
| 20260901090101 | 18 | 0 | 0.0 | 0.0 | 0.00 | 0.00 | 0.00 | 89 | 1016.3 |
| 20260901084622 | 18 | 0 | 0.0 | 0.0 | 0.00 | 0.00 | 0.00 | 87 | 1016.2 |
| 20260901083058 | 18 | 0 | 0.0 | 0.0 | 0.00 | 0.00 | 0.00 | 88 | 1016.3 |
| 20260901081556 | 18 | 0 | 0.0 | 0.0 | 0.00 | 0.00 | 0.00 | 88 | 1016.4 |
| 20260901080115 | 18 | 0 | 0.0 | 0.0 | 0.00 | 0.00 | 0.00 | 88 | 1016.4 |
| 20260901074623 | 18 | 0 | 0.0 | 0.0 | 0.00 | 0.00 | 0.00 | 89 | 1016.6 |
| 20260901073056 | 18 | 0 | 0.0 | 0.0 | 0.00 | 0.00 | 0.00 | 89 | 1016.7 |
| 20260901071607 | 18 | 0 | 0.0 | 0.0 | 0.00 | 0.00 | 0.00 | 88 | 1016.6 |
| 20260901070052 | 18 | 0 | 0.0 | 0.0 | 0.00 | 0.00 | 0.00 | 88 | 1016.4 |
| 20260901064559 | 18 | 0 | 0.0 | 0.0 | 0.00 | 0.00 | 0.00 | 88 | 1016.5 |
| 20260901063108 | 18 | 0 | 0.0 | 0.0 | 0.00 | 0.00 | 0.00 | 88 | 1016.6 |
| 20260901061603 | 18 | 0 | 0.0 | 0.0 | 0.00 | 0.00 | 0.00 | 88 | 1016.8 |